Wind_Speed
4 6 11 14 14 14 15 16 18 19 19 19 18 17 17 17 17 16 16 15 15 15 15 16 17 16 16 15 14 14 14 14 14 14 13 13 12 11 10 9 8 7 6 5 5 5 5 5 4 4 3 2 1 2 3 4 5 7 8 9 10 10 9 9 9 10 11 11 12 11 10 11 13 13 13 12 11 9 7 6 5 6 6 5 5
5 6 10 15 15 15 16 16 17 18 19 18 18 18 18 17 17 17 16 16 16 16 17 17 16 15 15 14 14 14 14 14 14 14 13 13 12 11 10 9 8 6 5 5 5 5 5 4 3 3 2 1 2 3 4 5 6 7 8 9 10 9 8 8 9 9 10 12 12 11 9 9 11 12 12 12 11 10 9 6 5 5 5 6 6
7 6 9 14 16 16 17 17 17 18 19 18 18 18 18 18 18 17 17 17 17 17 17 16 15 14 14 13 14 13 13 13 14 14 13 13 12 11 10 8 7 6 4 4 4 4 4 3 2 1 0 1 2 4 4 5 6 8 8 9 9 8 7 8 9 10 11 12 12 10 8 8 9 10 10 11 10 10 9 8 6 6 6 6 6
11 8 9 13 16 17 18 18 19 19 19 19 19 19 19 19 19 19 19 18 18 18 17 16 14 13 13 13 13 13 14 15 15 14 13 12 11 10 9 8 7 5 4 3 3 4 3 2 1 0 2 3 4 5 5 5 7 8 9 8 8 7 7 8 10 12 13 13 12 10 9 8 8 9 10 10 10 9 9 9 8 8 7 7 7
14 11 10 13 16 18 19 19 20 20 20 20 20 20 20 20 20 20 21 20 20 19 17 16 14 14 13 13 13 14 16 16 15 14 13 12 10 9 8 7 6 6 5 4 3 3 3 2 1 2 3 4 5 5 6 6 7 8 8 7 7 7 8 9 11 13 14 13 12 10 9 7 7 7 9 11 10 9 8 8 8 8 8 8 7
16 14 12 13 16 18 19 19 20 20 21 21 21 21 22 22 21 22 22 21 20 19 17 16 15 15 15 15 16 16 15 14 14 14 13 12 10 9 9 8 7 6 5 4 4 3 3 3 3 4 5 5 5 6 6 7 8 9 7 6 5 6 8 10 12 12 12 11 11 10 9 8 5 4 6 9 9 8 8 7 7 7 7 7 7
17 16 15 15 16 18 19 20 21 21 22 21 21 22 22 22 22 22 22 21 20 19 18 16 16 16 16 17 17 15 14 14 14 14 14 13 11 11 10 9 8 7 6 5 5 4 3 3 4 5 6 6 6 7 7 7 8 8 7 5 4 6 9 10 10 10 9 9 9 9 9 8 6 4 5 6 7 7 6 6 6 7 6 6 5
17 18 17 16 16 19 20 21 23 23 23 22 22 22 23 23 23 23 22 21 20 19 19 18 17 18 18 18 16 15 15 15 15 15 14 14 13 12 11 10 9 8 7 6 5 4 4 4 5 6 7 7 7 7 7 8 9 8 6 5 5 6 8 9 8 7 7 7 7 8 9 9 7 6 5 5 5 5 6 5 5 6 6 5 4
17 18 19 18 18 19 20 22 23 23 22 22 22 23 23 23 23 23 22 21 21 20 20 20 19 19 18 17 16 16 16 15 15 15 15 15 15 14 13 11 10 9 8 6 5 4 4 5 5 7 8 8 8 8 8 8 9 8 6 5 6 7 8 8 7 6 6 6 7 8 8 8 7 6 5 4 4 5 5 5 5 5 5 4 4
17 17 18 19 19 19 21 22 22 22 21 22 22 22 22 22 22 22 21 21 22 22 22 22 21 20 18 17 17 16 16 16 16 16 16 16 16 15 14 13 12 10 9 8 6 5 4 5 6 7 8 9 9 9 8 9 9 9 7 6 6 6 7 8 7 5 5 5 7 8 8 7 6 6 5 4 4 4 5 5 5 5 5 5 4
17 17 18 19 20 20 21 21 21 22 22 21 21 21 20 21 21 21 21 21 21 21 22 22 21 20 19 18 18 17 17 16 16 16 17 17 16 16 15 13 13 12 11 10 8 6 4 4 5 7 8 9 10 9 9 9 10 9 8 7 5 5 7 7 6 5 4 5 6 6 7 6 6 5 5 4 4 4 5 5 5 5 6 5 5
19 19 19 20 21 21 20 20 21 21 21 21 21 21 21 21 21 21 21 20 20 20 20 20 19 19 19 19 18 17 17 17 17 17 18 18 17 16 15 14 14 13 13 12 10 7 5 4 5 6 8 9 10 10 9 9 10 9 8 8 5 5 6 6 5 5 4 4 5 5 6 6 6 5 5 4 4 4 4 4 5 5 6 6 6
21 21 20 20 20 20 19 20 21 21 21 22 22 22 22 22 22 22 22 21 21 20 20 20 19 19 20 19 18 18 17 17 18 18 18 18 18 17 16 16 15 15 15 14 12 9 7 5 5 6 7 9 10 10 10 10 10 9 8 8 6 5 6 6 5 5 4 4 4 4 5 5 5 5 4 4 4 3 4 4 4 5 5 6 6
23 22 22 22 21 20 21 22 22 21 22 23 24 24 23 23 23 23 23 23 22 22 22 21 21 21 21 20 19 18 17 17 18 18 19 19 18 18 18 17 17 17 17 15 13 12 10 7 6 6 7 9 10 11 11 11 11 10 9 8 6 6 7 6 5 4 4 4 3 3 4 4 4 4 4 3 3 3 3 4 4 4 4 5 5
24 23 23 22 22 22 23 23 24 23 23 24 24 24 23 23 23 23 23 23 23 23 22 22 22 22 22 21 20 19 18 17 17 17 18 19 19 18 18 18 18 18 17 16 14 13 12 10 8 7 7 9 10 11 11 11 12 11 10 8 7 6 7 7 6 5 4 4 4 3 3 3 3 4 3 3 3 3 3 3 3 3 4 4 4
25 24 23 23 23 24 25 25 26 26 25 24 23 22 23 23 23 23 23 23 23 23 23 23 23 23 22 21 21 20 19 18 17 17 18 19 19 19 18 19 19 18 18 16 14 14 14 12 10 9 9 9 10 11 12 12 12 12 11 9 7 6 6 6 6 5 5 4 4 3 3 3 3 3 3 3 3 3 3 3 3 3 3 3 4
25 24 24 23 23 23 24 26 27 27 26 24 22 22 23 24 24 23 23 22 22 22 22 22 22 22 21 21 20 19 19 19 18 18 19 19 19 19 19 19 19 19 18 16 15 15 14 14 12 11 11 11 11 11 12 13 13 13 12 11 8 6 6 6 5 5 5 5 4 4 3 3 3 4 4 4 4 4 4 4 4 4 4 5 5
26 25 24 24 24 24 24 24 25 26 26 25 24 23 23 23 23 23 22 21 21 22 22 22 21 21 20 20 19 19 19 19 19 19 19 18 19 19 19 19 19 20 19 17 16 15 15 14 14 13 12 12 12 12 12 13 14 14 13 12 9 7 6 6 5 5 5 5 5 5 4 4 4 5 5 5 5 4 4 4 5 5 6 7 8
28 25 25 25 24 23 22 22 22 23 24 25 25 25 24 23 23 23 23 23 23 23 22 22 21 21 20 20 20 20 20 19 19 19 19 18 18 19 19 19 20 20 19 18 17 16 16 15 15 14 14 14 14 14 13 13 14 14 14 13 11 8 7 7 6 5 5 5 5 6 6 6 6 6 6 6 6 6 6 6 6 6 7 9 10
28 26 25 24 21 19 19 19 20 21 22 24 26 26 26 25 24 24 24 24 24 23 22 21 21 21 21 21 20 20 20 20 20 20 19 19 19 20 19 20 20 20 20 19 18 17 17 16 16 15 15 16 16 15 15 14 15 15 15 14 12 9 8 8 7 6 6 6 6 7 8 9 9 8 8 7 7 7 7 7 7 8 8 10 11
28 27 26 22 19 17 17 19 21 22 22 24 26 26 26 26 26 25 25 24 24 23 22 21 21 21 20 20 20 20 20 20 20 20 20 20 21 21 21 21 21 20 20 20 19 18 18 17 17 16 16 17 18 18 17 16 16 16 16 15 13 11 9 9 9 7 6 6 8 10 11 11 12 11 11 10 9 8 8 8 8 8 9 10 11
30 29 27 24 22 20 19 20 22 24 23 23 25 26 26 26 26 27 27 26 25 24 22 21 21 20 20 20 20 20 20 20 20 20 20 21 22 22 23 23 23 22 21 21 20 20 19 19 18 17 18 18 19 20 19 18 17 17 17 16 15 13 11 10 10 9 8 8 9 11 12 13 13 13 13 12 11 10 10 10 10 10 10 10 11
33 31 28 26 25 24 23 22 22 23 24 25 25 26 26 26 27 28 28 27 26 25 23 22 21 20 20 20 20 19 18 18 18 19 19 20 22 23 24 24 24 24 24 22 22 21 21 21 20 19 19 20 20 21 21 20 18 18 18 17 17 15 12 11 11 10 10 9 10 12 13 13 13 13 13 12 11 11 12 12 13 13 13 13 14
36 34 31 30 30 28 27 25 23 23 26 26 25 24 25 26 28 29 27 27 27 27 25 23 21 21 21 21 19 18 17 16 16 17 18 20 21 22 23 24 24 24 24 24 24 23 23 22 22 21 21 22 22 22 23 22 21 20 19 19 18 17 15 13 12 12 11 11 11 13 14 14 13 12 11 11 11 11 13 13 13 14 15 15 16
38 37 35 35 34 32 29 28 25 25 27 27 25 23 24 25 27 27 28 28 29 28 26 24 22 22 22 20 19 17 16 15 16 16 17 18 19 20 21 22 22 22 23 24 25 24 24 23 23 24 23 23 24 24 24 23 23 22 21 20 20 19 17 15 14 13 12 12 12 14 15 14 12 11 10 11 12 13 13 13 13 13 14 16 18
39 40 40 38 36 34 33 31 29 28 29 28 26 25 24 24 25 26 27 29 30 29 26 24 24 23 21 20 18 17 15 15 16 15 15 15 15 16 17 18 19 19 20 22 23 24 24 24 25 26 26 25 25 26 26 25 25 24 23 21 21 20 20 18 16 14 13 13 13 14 15 15 12 10 10 11 13 14 14 14 13 13 16 18 21
40 42 43 41 39 37 36 35 33 31 29 27 27 27 25 24 24 25 27 29 30 29 27 25 24 23 21 19 18 17 16 16 15 14 12 11 10 11 12 13 14 15 15 17 18 19 20 22 24 25 25 25 26 27 27 27 27 26 24 23 22 22 22 21 19 17 15 14 14 15 16 16 14 12 12 12 14 15 15 14 15 17 19 21 23
42 44 45 44 42 40 39 37 36 33 31 28 27 27 25 24 24 25 26 28 29 30 28 25 25 23 21 19 19 19 18 17 15 14 11 9 7 7 7 8 8 9 10 12 13 14 15 17 19 20 21 22 24 25 26 27 27 26 25 24 23 23 24 24 23 20 17 15 15 16 18 18 16 14 15 17 18 18 16 15 16 18 21 23 24
46 46 46 46 44 42 40 39 37 36 33 30 28 27 25 24 24 24 24 26 28 28 27 26 25 23 21 20 21 21 19 18 16 14 12 10 8 7 6 5 5 5 5 7 8 10 12 13 14 15 16 18 19 21 23 25 27 26 26 26 26 25 26 26 25 24 21 18 17 18 19 20 19 17 18 21 22 20 17 16 17 19 21 23 25
48 48 47 47 45 43 42 41 39 38 35 32 29 26 25 25 25 23 22 23 25 26 26 25 24 22 22 23 23 22 20 19 17 15 14 13 11 9 8 6 5 5 4 4 5 6 9 11 12 14 15 15 16 17 20 24 26 27 26 27 28 28 28 28 27 26 24 21 19 19 20 21 20 19 20 22 21 18 16 16 17 19 21 23 25
48 48 48 47 45 42 41 41 41 40 38 35 31 26 25 26 27 25 23 23 24 24 25 24 23 23 24 24 23 22 20 19 17 17 17 16 14 13 11 9 8 7 6 6 5 5 6 8 10 13 15 16 16 15 17 21 24 26 27 28 29 30 30 29 29 28 26 24 22 21 22 22 22 21 21 22 20 17 15 16 17 19 22 24 26
44 46 46 45 43 42 41 40 41 42 41 39 35 29 26 25 25 24 24 24 24 23 24 23 23 24 25 24 23 22 21 19 18 17 18 18 17 16 14 13 11 10 9 9 8 7 7 7 8 10 12 15 17 17 18 20 22 24 26 27 29 31 32 31 30 29 29 27 26 25 24 24 23 23 22 22 21 18 17 16 18 20 22 25 27
38 40 42 43 42 41 41 41 41 42 42 41 38 33 28 25 25 24 24 24 23 23 23 24 24 25 25 24 23 22 21 19 18 19 19 20 20 19 17 16 15 14 14 12 10 10 10 10 9 10 11 13 15 17 20 22 23 24 25 27 30 31 32 33 32 31 31 30 29 28 27 26 25 25 24 22 22 21 19 18 19 22 24 26 28
32 34 36 38 39 39 39 40 41 41 42 42 39 34 29 27 26 25 23 23 22 22 23 24 25 26 25 24 24 23 21 20 21 21 22 21 21 20 19 19 18 18 18 16 14 14 14 13 13 13 13 14 14 15 18 22 25 26 27 28 30 32 33 34 33 32 32 32 31 30 29 27 27 27 25 24 23 23 22 20 21 24 26 27 29
29 29 30 31 32 33 34 36 38 39 40 40 39 35 32 29 27 26 24 23 22 22 23 24 25 26 25 24 24 23 23 22 22 23 23 22 23 23 22 22 21 21 21 21 21 20 18 17 17 17 17 17 17 17 18 21 24 26 29 31 32 33 34 34 34 34 33 33 32 32 30 29 28 28 27 27 26 26 25 23 23 26 28 29 31
29 28 27 26 26 27 29 32 34 35 37 38 37 35 32 30 28 27 25 24 22 21 22 23 24 24 23 23 23 23 24 24 24 24 24 24 25 25 25 25 24 24 25 26 27 26 23 22 23 23 23 22 22 22 22 23 25 27 29 31 34 35 35 34 34 33 33 34 35 34 32 31 30 30 29 30 29 28 27 26 26 29 31 32 33
30 29 28 26 25 25 26 28 30 32 33 35 35 33 31 29 28 26 25 25 24 22 21 21 22 23 22 22 23 24 26 27 27 27 26 26 26 25 25 26 27 27 28 29 29 30 30 30 29 29 29 28 27 27 27 28 29 31 32 32 33 35 36 36 35 34 34 35 37 36 33 33 33 32 31 32 32 31 29 28 29 32 34 35 36
33 32 30 28 26 25 26 27 29 30 31 32 33 32 30 28 28 27 27 27 27 25 23 22 22 23 23 23 25 27 29 29 29 29 29 29 28 28 28 30 31 30 30 31 31 30 31 32 33 34 33 32 32 32 32 33 34 35 36 36 36 36 36 36 36 34 34 36 37 37 35 35 35 33 33 35 35 33 31 30 31 34 36 38 39
36 34 33 31 29 28 27 27 29 30 30 31 33 33 32 30 30 29 29 28 28 28 27 25 24 23 24 25 27 27 28 28 28 29 32 34 34 33 33 34 34 33 33 33 32 31 30 32 34 35 35 34 34 34 35 35 37 39 40 41 41 41 39 38 37 36 35 36 38 38 37 36 37 36 36 38 39 36 34 33 34 37 38 40 41
38 36 34 33 32 31 30 29 29 31 31 32 34 35 35 35 34 32 30 29 30 31 31 29 27 25 25 27 27 27 26 26 27 30 34 37 37 37 39 40 39 37 36 35 34 32 31 32 34 35 36 37 36 36 36 35 36 40 43 45 46 46 43 41 40 39 37 36 38 39 39 38 39 38 38 41 42 39 36 36 37 39 41 42 43
39 38 36 35 34 33 32 31 31 32 32 33 35 36 36 37 38 36 33 32 33 34 33 32 29 28 28 28 29 29 29 28 29 31 35 36 35 35 38 40 40 38 37 37 36 34 34 33 34 36 37 37 37 37 37 35 34 35 38 42 46 48 47 46 45 43 42 40 40 40 39 40 41 41 42 44 45 42 39 39 40 41 43 44 45
39 39 38 36 35 35 35 34 34 34 34 34 36 36 35 36 38 39 37 35 35 35 33 32 31 31 31 31 32 33 33 32 32 34 36 35 33 32 33 34 35 34 34 34 35 35 35 35 35 36 38 38 37 37 38 36 34 33 34 37 41 44 46 49 50 48 46 46 45 43 41 41 43 44 46 47 47 45 42 42 43 45 46 47 47
39 39 38 37 36 35 35 35 35 35 35 35 35 36 36 35 37 38 38 35 33 32 32 32 33 34 33 33 34 35 36 36 37 38 38 36 33 32 31 32 32 33 34 35 36 36 37 38 38 39 40 40 40 40 40 39 37 36 36 37 38 40 44 48 52 52 51 51 51 49 45 43 44 46 49 50 49 48 46 45 46 48 50 50 50
39 39 38 37 36 35 36 36 36 36 36 35 35 36 37 36 36 37 38 35 33 33 33 34 35 36 36 36 36 37 38 39 41 41 40 37 35 34 34 34 35 36 38 39 39 40 41 41 42 43 43 44 44 45 44 43 41 40 41 40 39 41 45 48 51 54 55 55 57 56 51 47 47 50 51 52 52 51 50 48 49 51 53 54 52
40 40 39 39 37 36 36 36 36 36 36 36 36 36 37 38 38 38 38 38 36 36 37 38 38 39 39 39 40 40 41 43 44 43 40 38 38 38 38 38 38 40 41 42 42 43 45 46 47 47 48 48 50 50 49 47 45 45 46 45 42 43 46 49 51 52 52 54 57 59 57 54 53 54 54 53 52 52 52 51 52 55 57 56 54
40 41 41 40 39 38 37 36 37 36 36 37 37 38 38 38 39 40 40 40 40 40 41 42 42 43 43 44 44 44 45 45 45 43 40 39 40 41 41 41 42 43 44 45 46 47 49 50 51 52 52 53 54 54 52 51 49 49 48 48 46 46 48 51 53 53 52 53 55 55 55 56 58 60 58 54 52 53 54 54 56 58 59 58 57
40 41 41 41 41 40 39 38 38 37 38 38 39 40 40 40 40 41 41 42 42 43 44 45 46 47 47 48 47 46 45 44 43 42 42 42 43 44 45 46 46 46 48 49 50 52 54 54 55 55 56 57 58 58 56 54 53 52 50 50 51 51 51 52 54 55 56 57 57 55 53 56 60 63 61 58 55 54 54 56 57 59 60 60 60
40 41 41 41 41 41 40 39 39 38 39 39 39 40 41 42 42 42 42 43 43 44 44 45 46 47 47 46 45 44 43 43 44 45 46 46 47 47 48 48 49 49 51 52 53 55 56 57 58 58 58 59 60 59 59 58 57 54 53 54 55 56 56 56 56 58 60 61 62 60 58 59 61 60 59 60 59 57 56 56 58 59 61 62 62
39 40 40 41 41 41 41 41 40 39 39 39 39 39 40 42 43 44 44 44 44 44 45 45 46 45 45 45 45 45 45 46 47 49 50 50 50 50 49 49 50 51 52 53 54 55 57 57 58 60 61 62 62 61 60 62 62 60 58 59 60 59 60 60 59 62 66 68 67 64 62 62 62 60 57 57 58 59 59 60 60 61 63 65 64
40 39 40 40 41 41 41 41 40 39 38 38 38 37 38 39 42 43 44 45 45 46 47 47 47 47 47 48 48 48 49 51 52 53 54 53 53 52 52 51 51 51 53 55 56 56 58 59 60 62 63 65 66 65 63 64 66 64 63 64 64 63 64 64 64 66 72 75 72 69 66 64 63 62 61 59 59 59 61 62 63 64 66 66 65
41 40 39 40 40 40 41 41 40 39 38 38 38 38 37 38 38 40 41 43 45 47 49 50 51 52 52 53 53 53 54 54 55 55 55 54 54 54 54 54 54 55 56 57 58 58 59 61 62 64 65 66 67 67 66 65 66 66 66 66 66 66 67 68 69 71 75 77 75 72 71 70 68 67 66 62 60 60 61 63 65 67 69 67 64
Wind_Direction
182 183 176 178 185 187 188 190 189 187 184 183 184 186 186 183 182 183 182 181 184 187 189 191 192 191 189 185 180 176 174 174 174 173 173 170 167 163 160 156 151 145 137 131 126 127 130 128 123 114 105 89 31 358 0 8 13 12 10 9 5 1 360 2 10 16 15 10 9 12 18 25 27 25 26 27 25 20 10 351 336 326 321 321 317
178 189 181 180 183 183 183 187 190 187 185 184 184 185 183 180 180 178 177 179 183 187 189 191 191 189 186 182 180 178 177 178 177 177 178 176 172 169 164 161 155 146 137 131 128 130 131 126 118 108 101 55 347 334 344 359 1 3 5 0 353 351 353 358 7 15 16 13 14 19 27 33 31 28 31 34 33 31 27 15 355 333 321 322 320
172 182 183 180 182 182 181 184 188 187 184 183 183 184 181 179 177 174 176 181 184 187 190 189 188 185 183 183 182 181 181 183 183 183 183 181 178 173 169 165 159 151 144 140 136 139 136 126 112 100 1 331 325 320 332 346 349 353 355 349 342 342 347 356 2 6 10 12 13 18 29 35 33 33 36 37 36 34 32 27 13 355 340 331 326
168 174 180 180 180 180 182 184 185 185 185 183 182 182 182 180 177 175 179 183 185 187 188 186 184 182 183 185 185 185 189 190 190 190 188 186 182 176 172 170 167 162 162 160 155 158 154 140 122 305 307 316 313 313 324 335 342 346 344 340 336 335 342 351 354 357 2 7 9 13 25 35 40 44 43 40 36 31 28 28 24 16 7 357 346
165 167 175 180 180 180 182 185 184 185 187 185 182 182 184 183 180 180 182 184 185 186 185 182 181 183 186 189 192 194 195 195 195 195 194 193 188 180 178 180 179 177 179 183 182 182 182 187 236 283 298 308 309 311 317 326 335 337 334 333 331 331 340 347 348 352 358 2 5 9 17 30 44 51 46 40 34 28 22 20 20 20 20 17 6
165 163 170 178 180 181 182 185 186 187 188 188 185 185 186 185 183 184 185 184 185 184 180 180 182 185 189 193 198 198 197 198 200 201 200 198 195 191 191 191 190 190 194 200 202 205 210 219 250 275 290 304 309 310 310 317 327 328 325 327 328 333 340 342 345 353 358 0 3 7 11 19 32 42 34 30 30 26 20 15 12 15 22 22 12
168 164 169 176 180 184 183 183 187 189 189 189 188 188 188 187 187 188 188 186 185 181 178 180 184 188 193 198 199 197 198 203 206 207 205 203 200 201 203 203 200 199 202 208 212 220 231 240 259 273 285 299 306 307 306 311 320 321 316 317 327 337 339 340 347 356 1 2 5 8 9 11 16 14 5 12 25 26 21 18 11 12 21 23 13
176 170 170 175 183 186 185 185 188 191 190 189 190 191 190 189 190 191 190 187 184 180 179 182 186 191 197 200 199 196 199 204 209 211 210 208 206 208 209 209 208 206 206 212 218 229 249 259 265 273 282 293 302 305 304 306 313 314 307 307 326 339 341 343 351 1 7 8 9 9 8 8 10 9 4 9 24 28 26 25 21 21 28 29 21
188 179 173 176 185 188 189 189 191 192 192 191 193 194 193 192 192 192 190 187 184 182 182 186 190 194 198 200 198 196 197 203 209 214 215 213 212 214 212 209 209 209 209 216 224 236 258 269 270 272 278 288 296 301 301 301 307 307 298 302 327 346 350 350 355 4 12 12 8 7 8 11 12 12 13 18 23 27 29 30 29 31 38 45 52
196 191 182 181 186 190 193 193 193 193 194 195 196 196 195 194 193 193 192 190 186 185 186 189 192 195 198 201 201 198 195 198 205 213 219 219 217 218 217 213 212 212 210 217 230 243 265 278 276 273 276 283 289 296 298 296 302 303 295 301 328 356 1 355 353 1 12 9 3 4 8 14 19 21 20 16 15 23 32 32 28 26 28 40 55
197 197 191 188 188 190 192 194 195 196 196 197 196 195 195 195 195 195 196 195 192 191 192 194 195 197 200 204 205 201 197 197 204 211 218 222 222 222 222 220 218 218 216 220 230 244 266 286 289 280 278 281 284 289 293 292 297 298 293 299 325 1 6 1 355 353 359 2 358 1 9 17 23 28 29 27 23 24 32 33 26 19 16 22 32
198 199 197 195 193 190 190 194 198 198 198 198 197 196 195 195 196 197 199 200 199 199 200 201 201 202 205 209 210 207 202 200 206 213 218 223 226 227 226 224 223 223 223 226 231 240 256 281 298 293 284 282 282 286 288 288 292 292 288 294 313 350 2 5 2 353 352 359 5 6 8 15 23 29 33 34 33 28 28 28 23 16 14 16 20
199 200 200 200 197 192 192 195 196 198 200 201 201 200 199 198 199 200 201 202 203 203 205 206 207 209 212 214 214 213 209 206 209 215 220 223 226 228 229 228 226 226 229 232 234 236 243 262 291 302 291 284 284 286 285 285 287 287 282 287 301 328 346 357 4 358 352 356 12 16 9 9 16 26 33 34 34 29 24 23 19 15 13 14 18
198 200 202 200 196 193 194 195 193 197 202 204 204 203 204 203 203 204 204 205 206 205 206 207 209 212 215 217 217 217 215 214 213 218 224 228 228 229 230 231 230 229 232 237 237 234 237 250 274 293 293 290 288 285 284 283 285 284 278 280 290 313 331 341 349 350 345 345 357 7 7 8 10 20 31 34 35 31 25 22 20 17 16 17 19
199 201 203 202 198 194 195 195 193 196 202 206 207 206 206 206 206 207 208 209 209 208 208 209 210 212 215 218 220 221 220 219 219 221 226 231 233 232 231 232 233 233 235 240 239 235 238 246 262 281 291 293 291 286 283 281 283 283 277 275 280 299 320 327 329 330 330 333 339 343 350 0 10 18 25 30 33 33 29 25 20 18 18 16 13
201 202 204 205 204 199 197 196 194 196 201 205 208 208 208 208 208 209 210 211 212 212 212 211 212 213 216 218 220 222 222 223 223 224 226 230 234 235 233 232 234 236 238 241 240 238 241 245 255 272 284 291 290 286 282 279 280 281 277 273 273 286 309 316 316 320 322 325 331 331 334 342 357 11 15 18 21 21 20 18 13 8 1 356 349
204 204 204 205 207 207 204 200 198 200 202 203 205 208 210 210 210 210 211 212 214 215 216 216 217 218 220 222 224 225 225 225 226 226 227 229 232 235 236 234 235 237 239 240 240 240 242 244 250 261 274 285 289 286 282 278 278 279 276 272 269 276 299 308 308 316 321 326 334 338 340 338 341 353 358 1 3 359 355 353 347 340 334 331 328
207 206 206 206 208 211 211 208 204 203 204 204 205 208 212 212 211 209 208 210 213 216 217 219 222 224 226 229 230 230 229 228 229 231 232 232 234 236 237 237 237 237 239 239 239 240 242 244 248 254 264 277 285 286 284 279 276 277 276 272 267 269 287 297 299 310 318 328 340 347 352 350 346 348 349 349 348 344 338 333 327 324 320 318 318
209 208 209 210 211 212 215 217 215 212 210 207 207 209 210 211 213 211 209 209 211 214 218 222 226 229 231 234 236 238 238 237 237 238 239 239 239 239 239 239 239 239 240 239 237 239 242 245 248 251 258 270 281 284 283 278 275 275 275 272 267 266 278 288 290 297 311 325 341 349 354 357 357 357 353 347 341 336 331 325 320 317 316 316 318
208 209 213 214 213 213 217 220 221 222 220 217 214 212 210 210 213 215 216 215 215 216 220 225 229 232 234 237 240 243 246 247 247 247 246 245 244 244 244 243 242 242 242 241 239 239 241 245 249 252 255 265 275 280 280 278 274 273 273 271 266 263 272 283 285 287 301 319 336 345 348 350 352 354 353 348 341 334 329 323 319 319 319 319 319
208 211 216 214 209 211 219 223 222 222 224 225 223 218 216 214 214 216 220 221 221 222 224 227 231 234 237 239 241 244 246 249 251 252 252 251 250 249 248 247 246 245 244 243 242 241 242 246 250 253 254 259 267 274 277 277 273 271 270 269 265 261 266 279 284 286 295 313 331 338 339 339 340 343 344 341 337 330 324 318 316 316 317 318 318
209 212 214 210 205 208 220 228 228 226 224 227 229 226 224 223 221 222 222 223 225 225 226 229 233 235 238 240 240 242 245 247 249 251 252 252 252 251 250 249 248 247 246 245 243 242 244 248 251 254 255 256 261 267 273 275 272 268 268 266 263 258 260 272 281 286 293 309 327 333 333 334 335 338 339 337 331 322 316 314 311 310 312 315 317
210 211 212 209 206 206 214 224 231 234 232 227 229 231 231 231 231 231 229 227 228 228 228 230 231 233 236 237 238 240 243 246 248 250 250 251 252 251 251 250 248 247 247 247 246 244 245 248 252 254 255 256 258 262 267 271 270 266 265 265 262 257 256 263 273 281 290 305 322 328 329 333 337 339 340 340 336 327 319 317 315 314 316 318 319
211 210 208 209 209 208 211 218 224 236 241 235 231 233 235 237 238 238 237 235 233 232 231 231 231 232 233 234 235 237 241 244 247 248 248 248 249 250 251 252 251 249 248 247 247 247 247 249 252 254 255 255 255 256 261 266 266 264 263 263 261 257 253 257 265 275 286 300 314 321 324 330 337 338 339 347 352 345 335 328 324 323 323 323 321
214 212 210 212 213 211 214 218 221 231 243 245 242 239 239 241 243 243 243 241 238 236 235 235 234 233 233 233 234 236 239 243 245 246 247 249 250 251 252 253 253 252 250 248 248 248 249 250 252 253 253 253 253 252 254 259 261 261 259 260 260 257 254 254 259 268 281 293 305 313 317 324 332 333 339 353 359 355 349 343 335 330 327 326 327
216 215 214 216 218 217 219 222 224 229 240 246 247 246 245 245 247 246 244 243 242 240 238 236 236 235 234 233 234 236 239 242 244 245 247 250 253 253 253 253 253 251 249 248 249 249 249 250 251 251 252 251 251 250 250 253 256 258 258 258 259 258 255 253 256 262 273 285 296 304 308 314 321 322 327 344 352 351 350 349 343 335 331 331 333
214 215 217 218 220 221 222 224 226 230 236 242 248 251 251 251 252 251 247 244 243 241 240 237 236 235 233 231 233 234 237 240 241 240 243 248 248 247 247 248 248 247 244 244 245 245 244 245 247 249 249 249 249 249 249 251 253 256 257 257 257 257 256 254 254 257 265 276 286 293 298 302 308 308 308 320 334 337 337 339 338 335 334 333 335
213 214 217 219 221 223 224 226 228 229 231 236 245 252 252 252 253 254 252 249 245 242 240 238 236 235 233 230 230 232 235 238 239 236 237 237 232 229 231 233 235 234 233 233 235 236 237 238 241 244 246 247 248 249 250 251 252 254 255 256 256 256 256 254 253 254 258 266 277 284 290 294 297 300 299 303 313 320 322 325 329 331 333 332 333
213 214 216 219 222 223 225 226 227 228 228 230 240 249 251 250 251 254 256 253 247 243 240 237 236 236 232 229 228 231 235 238 238 235 232 228 221 216 211 206 202 199 205 217 228 234 237 239 242 244 247 248 249 250 252 252 253 253 254 255 255 254 254 253 253 254 255 260 268 276 282 287 291 296 297 298 304 308 310 315 323 327 329 330 331
214 216 217 220 222 223 224 224 223 224 225 227 234 244 250 249 249 251 253 251 247 244 240 237 236 235 230 226 227 232 236 238 238 235 232 228 224 220 214 206 200 193 192 205 221 234 241 243 245 248 251 252 253 253 253 253 254 254 253 252 252 252 253 253 253 254 254 255 261 269 275 281 286 291 294 298 301 302 303 309 317 321 323 326 329
217 219 221 223 224 224 224 222 220 220 222 224 228 238 246 249 249 248 248 249 247 244 241 238 234 231 227 224 227 232 236 238 239 238 236 233 230 228 224 218 214 209 211 217 218 225 242 248 249 251 253 253 254 253 254 253 254 254 253 251 251 252 253 254 254 253 254 254 256 262 268 275 281 285 290 295 297 297 299 306 313 317 319 322 325
221 222 224 227 228 227 226 222 219 220 222 223 227 232 239 247 250 248 246 247 246 245 243 239 231 226 223 223 226 230 233 237 239 241 241 239 236 235 234 232 229 226 228 230 225 228 242 253 258 262 262 260 256 252 252 253 253 254 253 251 250 251 253 255 255 253 252 252 253 257 262 269 275 279 284 289 293 295 298 304 312 315 317 319 321
226 225 226 228 230 229 228 224 222 221 222 224 226 228 233 243 248 249 248 248 247 246 243 237 229 223 219 220 224 229 233 237 240 241 241 241 240 240 241 241 240 240 243 243 238 240 247 253 258 264 270 271 266 257 253 252 252 254 254 253 251 251 253 255 256 254 252 252 253 255 259 265 271 275 279 283 288 293 296 302 309 313 314 315 317
226 226 226 228 230 231 229 227 226 225 224 225 226 227 229 237 244 249 251 252 249 246 241 235 228 222 217 218 225 230 235 236 236 237 238 241 244 245 245 244 245 249 254 254 251 251 255 258 258 259 262 267 272 271 265 260 257 255 256 256 255 254 254 256 257 257 254 253 255 256 258 261 267 272 276 278 282 288 292 298 305 309 309 310 312
223 224 225 227 229 230 230 229 229 229 227 226 227 228 229 235 242 246 249 251 250 247 243 237 231 226 223 225 230 235 238 237 235 235 238 241 245 248 250 250 250 253 257 260 260 260 260 260 261 261 260 261 265 271 274 273 270 265 262 261 260 260 260 260 262 262 260 258 258 259 259 260 264 270 274 276 278 282 287 293 300 303 304 304 306
224 226 228 229 231 231 230 229 229 229 227 226 227 229 231 233 238 243 246 250 251 250 248 243 238 234 232 233 236 239 241 241 241 242 242 243 246 249 252 254 254 254 256 259 263 266 266 265 264 263 262 263 265 268 272 277 278 276 271 268 268 268 267 267 268 268 267 265 263 263 262 262 263 267 271 275 277 279 284 289 295 298 299 300 302
229 232 234 234 234 235 234 233 231 228 225 224 225 230 231 231 235 240 245 250 254 255 255 252 248 244 242 243 244 242 241 243 247 249 249 249 249 250 252 254 255 255 255 256 258 261 263 265 265 265 264 264 264 265 267 271 274 276 277 276 275 273 272 271 271 271 270 268 267 267 266 265 264 265 269 273 275 277 281 286 290 293 295 298 299
233 234 236 238 239 238 238 238 236 232 227 223 223 228 231 232 234 239 244 250 255 258 259 258 254 251 252 256 254 248 244 246 252 256 257 255 252 251 253 255 254 253 253 253 252 254 258 262 264 267 268 269 269 268 266 265 266 269 272 275 274 273 273 273 273 272 271 270 269 269 268 267 267 267 269 271 273 276 279 283 287 290 292 295 297
235 234 234 237 240 241 241 241 240 238 233 226 223 225 227 229 232 237 242 248 254 258 259 259 259 258 259 262 260 254 252 255 260 262 261 257 254 254 255 255 254 254 255 255 256 258 261 265 267 269 272 274 275 275 272 268 266 265 266 266 267 268 269 272 273 274 273 272 271 270 269 268 269 269 269 271 272 275 277 280 284 287 290 293 294
238 236 234 234 237 239 241 242 243 242 238 232 228 226 225 225 228 233 240 246 250 254 256 257 260 261 262 264 261 257 258 262 263 262 261 259 257 257 258 255 253 255 256 256 258 261 265 268 270 270 272 274 275 275 274 272 271 269 267 265 264 265 267 268 269 270 271 271 270 270 269 268 269 269 269 270 272 274 276 279 281 284 287 290 291
239 239 236 233 233 236 238 240 242 243 240 236 233 230 227 225 225 228 235 241 245 249 252 254 258 260 261 264 263 261 262 263 261 260 262 264 264 265 265 261 257 258 260 259 259 261 264 266 267 267 269 271 273 275 274 272 272 274 274 273 271 269 267 266 267 268 268 268 268 268 269 268 268 268 268 269 271 273 275 276 279 282 284 286 288
240 241 240 237 234 234 237 239 241 242 241 239 238 235 230 226 225 225 230 236 242 246 249 252 255 258 260 261 262 263 264 264 263 264 267 269 269 269 268 263 260 262 263 263 262 263 264 266 268 269 270 272 274 275 274 273 272 275 277 279 279 275 269 265 266 268 270 269 267 266 266 267 268 267 266 267 269 271 273 274 277 280 281 283 285
240 241 242 240 237 234 236 238 239 240 241 240 241 241 238 231 226 225 228 234 241 244 246 249 252 254 256 257 258 261 263 264 265 267 268 268 266 265 265 262 261 263 264 265 265 267 269 272 274 275 275 277 277 277 276 275 274 274 274 274 275 276 273 268 266 266 267 268 267 264 263 264 267 267 266 266 268 269 270 272 274 276 278 281 283
241 242 242 241 238 235 234 236 238 239 240 240 241 243 244 241 235 230 229 233 239 243 244 246 249 251 253 254 256 258 259 261 263 265 265 264 263 264 264 265 265 266 268 269 271 273 275 277 278 278 278 279 279 278 277 276 274 274 273 272 270 270 272 273 271 269 267 266 266 265 262 261 263 264 264 265 266 267 268 269 272 274 276 278 280
240 242 243 242 240 236 234 235 236 238 239 241 242 243 245 245 244 240 235 234 237 241 244 246 248 250 252 253 255 256 258 259 261 262 262 263 266 267 268 269 270 271 272 274 275 276 278 279 279 279 279 278 277 277 276 275 273 272 271 272 271 269 269 270 271 273 273 271 269 267 263 261 260 260 260 260 262 265 267 268 269 270 272 275 278
238 241 243 243 242 240 237 236 236 237 238 240 242 244 245 246 246 246 243 240 239 240 242 245 247 249 251 253 255 257 258 258 259 260 262 266 269 270 271 272 272 272 273 274 273 273 275 276 276 277 277 277 276 276 275 275 273 271 270 271 271 271 269 268 270 273 274 274 272 269 268 266 263 260 259 258 258 261 264 265 266 268 271 274 277
238 239 241 243 243 243 242 240 238 237 238 240 243 245 246 246 246 247 246 244 242 241 242 244 247 249 252 254 256 257 258 259 261 263 266 269 270 272 273 273 273 272 272 271 270 270 271 273 274 275 275 275 275 275 276 275 274 273 274 274 273 272 271 270 270 270 271 270 270 269 269 268 266 263 262 261 258 258 260 262 265 268 271 273 275
238 240 241 242 243 243 243 243 242 240 239 240 242 245 246 247 246 246 247 247 247 246 246 247 249 251 253 255 257 257 259 261 263 265 268 270 271 272 273 272 271 270 269 269 269 269 270 271 272 273 273 273 274 275 276 277 277 276 275 274 273 272 271 270 269 269 268 267 266 266 265 265 265 265 265 263 261 260 260 261 263 266 268 270 272
240 241 242 244 244 245 245 245 244 243 241 240 241 243 245 245 246 246 247 248 250 251 252 253 254 254 255 256 257 257 259 261 263 264 267 269 270 271 270 268 266 266 266 266 267 268 269 271 272 273 274 275 275 276 276 276 277 278 277 274 272 271 270 269 269 269 267 265 264 263 263 264 265 266 265 263 262 261 261 260 261 262 264 266 267
241 242 243 245 247 247 246 246 246 245 244 242 241 242 243 244 245 246 248 249 251 252 253 255 256 256 256 256 257 258 259 261 262 264 266 268 269 268 267 266 265 265 265 267 268 270 272 273 274 275 276 276 276 277 275 274 274 276 276 275 273 271 269 268 268 267 267 266 263 262 262 263 265 266 266 265 263 261 260 259 259 260 260 261 264
241 242 244 246 248 248 248 248 247 246 245 245 244 244 244 244 244 245 247 249 250 252 253 254 255 256 257 258 259 260 261 262 264 265 267 268 268 267 266 266 266 266 267 269 271 272 274 275 275 275 275 275 276 276 274 272 272 273 273 272 271 270 268 267 267 267 267 268 266 264 262 262 264 266 267 267 264 260 258 257 258 258 258 259 262
Height
5900 5900 5900 5901 5903 5904 5906 5908 5910 5911 5913 5914 5916 5917 5918 5919 5921 5922 5924 5925 5927 5928 5929 5930 5931 5933 5934 5935 5936 5937 5938 5938 5939 5940 5940 5940 5941 5941 5942 5942 5943 5943 5943 5943 5944 5944 5944 5944 5943 5943 5943 5942 5942 5941 5940 5939 5938 5938 5937 5936 5936 5936 5936 5936 5935 5934 5933 5932 5931 5930 5929 5928 5927 5926 5925 5923 5922 5922 5921 5921 5921 5921 5921 5921 5921
5900 5900 5900 5900 5902 5903 5905 5907 5909 5911 5912 5914 5915 5916 5918 5919 5920 5921 5923 5925 5926 5927 5928 5930 5931 5933 5934 5935 5936 5937 5938 5938 5939 5940 5940 5941 5941 5942 5942 5942 5943 5943 5943 5943 5944 5944 5944 5944 5944 5943 5943 5942 5942 5941 5940 5939 5938 5937 5937 5936 5936 5936 5936 5935 5935 5934 5934 5933 5932 5931 5930 5929 5928 5927 5926 5924 5923 5922 5922 5922 5921 5921 5921 5920 5920
5898 5899 5900 5900 5901 5903 5904 5906 5908 5910 5912 5913 5915 5916 5917 5918 5920 5921 5923 5924 5925 5927 5928 5929 5931 5933 5934 5935 5936 5937 5937 5938 5939 5940 5940 5941 5941 5942 5942 5942 5943 5943 5943 5943 5943 5944 5944 5944 5944 5943 5943 5943 5942 5941 5940 5939 5938 5937 5937 5937 5936 5936 5936 5935 5934 5934 5934 5933 5932 5931 5930 5929 5928 5927 5926 5925 5924 5923 5922 5921 5921 5920 5920 5920 5919
5897 5898 5899 5900 5901 5902 5904 5905 5907 5909 5911 5912 5914 5916 5917 5918 5919 5920 5921 5923 5924 5926 5927 5929 5931 5932 5933 5934 5935 5936 5937 5938 5938 5939 5940 5941 5941 5942 5942 5943 5943 5943 5943 5943 5943 5944 5944 5944 5944 5943 5943 5942 5942 5941 5940 5939 5938 5938 5937 5937 5937 5936 5936 5935 5934 5934 5933 5932 5932 5931 5930 5929 5929 5928 5927 5926 5925 5924 5923 5922 5921 5920 5920 5919 5919
5895 5897 5898 5899 5900 5901 5903 5905 5906 5908 5909 5911 5913 5914 5916 5917 5918 5919 5920 5922 5923 5924 5926 5928 5930 5931 5932 5933 5934 5935 5936 5937 5938 5939 5940 5941 5942 5942 5942 5943 5943 5943 5943 5943 5943 5944 5944 5944 5944 5943 5943 5942 5942 5941 5940 5939 5938 5938 5938 5937 5937 5936 5936 5935 5934 5933 5932 5931 5931 5930 5930 5929 5929 5928 5927 5926 5925 5924 5923 5922 5921 5921 5920 5919 5919
5894 5895 5897 5898 5900 5901 5902 5904 5906 5907 5909 5910 5911 5913 5914 5916 5917 5918 5919 5921 5922 5923 5925 5927 5929 5930 5931 5932 5933 5934 5935 5936 5938 5939 5940 5940 5941 5942 5942 5942 5943 5943 5943 5943 5943 5943 5944 5944 5944 5943 5943 5943 5942 5941 5940 5939 5939 5939 5938 5938 5937 5937 5936 5935 5934 5933 5932 5931 5930 5930 5929 5928 5928 5928 5927 5927 5926 5925 5924 5923 5922 5921 5921 5920 5919
5893 5894 5895 5897 5899 5900 5901 5903 5904 5906 5908 5909 5911 5912 5913 5915 5916 5917 5918 5920 5921 5923 5924 5926 5927 5929 5930 5930 5931 5933 5935 5936 5936 5938 5939 5940 5941 5941 5942 5942 5942 5942 5942 5942 5943 5943 5943 5944 5943 5943 5943 5942 5942 5941 5940 5939 5939 5939 5938 5938 5938 5937 5936 5935 5934 5933 5932 5931 5930 5929 5928 5928 5928 5927 5927 5927 5926 5925 5924 5923 5923 5922 5921 5920 5920
5894 5893 5894 5896 5897 5899 5900 5902 5903 5905 5906 5908 5910 5911 5912 5914 5915 5916 5917 5919 5920 5922 5923 5925 5926 5927 5928 5929 5931 5932 5933 5934 5935 5937 5938 5939 5940 5940 5941 5942 5942 5942 5942 5942 5943 5943 5943 5943 5943 5943 5942 5942 5941 5940 5940 5939 5939 5939 5939 5938 5938 5938 5937 5935 5934 5933 5932 5931 5930 5929 5928 5928 5927 5927 5927 5926 5926 5925 5924 5924 5923 5922 5921 5921 5920
5895 5893 5893 5894 5896 5898 5899 5901 5902 5904 5906 5907 5909 5910 5911 5913 5914 5915 5916 5918 5919 5920 5922 5923 5924 5926 5927 5928 5930 5931 5932 5933 5934 5935 5936 5937 5938 5939 5940 5941 5941 5941 5941 5942 5942 5942 5942 5942 5942 5942 5942 5941 5941 5940 5940 5939 5939 5939 5939 5939 5938 5937 5937 5935 5934 5933 5932 5931 5930 5929 5928 5927 5927 5927 5926 5926 5926 5925 5924 5923 5923 5922 5922 5921 5920
5895 5894 5894 5893 5894 5896 5898 5900 5902 5904 5906 5907 5908 5910 5911 5912 5913 5915 5916 5917 5918 5919 5920 5922 5923 5924 5926 5927 5928 5929 5931 5932 5933 5934 5935 5936 5937 5938 5939 5939 5940 5940 5941 5941 5941 5941 5942 5942 5942 5941 5941 5941 5940 5940 5939 5939 5939 5939 5939 5939 5938 5937 5937 5935 5934 5933 5931 5930 5929 5929 5928 5927 5927 5927 5926 5926 5926 5925 5924 5923 5923 5922 5921 5921 5920
5894 5894 5894 5894 5894 5895 5897 5900 5902 5903 5905 5906 5908 5909 5911 5912 5913 5914 5915 5916 5918 5918 5919 5921 5922 5923 5924 5925 5926 5927 5929 5930 5931 5932 5933 5934 5935 5936 5937 5938 5939 5939 5940 5940 5940 5941 5941 5941 5941 5941 5940 5940 5940 5939 5939 5939 5939 5939 5938 5938 5938 5937 5937 5936 5934 5932 5931 5930 5929 5928 5928 5927 5927 5926 5926 5926 5925 5925 5924 5924 5923 5922 5921 5921 5920
5892 5893 5893 5893 5894 5895 5897 5899 5901 5903 5904 5906 5907 5908 5910 5911 5912 5913 5914 5916 5917 5918 5919 5920 5921 5922 5923 5924 5925 5926 5927 5929 5929 5930 5931 5932 5933 5934 5935 5936 5937 5938 5938 5939 5939 5940 5940 5940 5940 5940 5940 5939 5939 5939 5939 5939 5938 5938 5938 5938 5938 5937 5937 5936 5934 5933 5931 5930 5929 5928 5927 5927 5926 5926 5926 5925 5925 5925 5924 5924 5923 5922 5922 5921 5920
5890 5891 5892 5893 5894 5895 5896 5897 5899 5901 5903 5904 5905 5907 5908 5909 5910 5912 5913 5914 5916 5917 5918 5919 5920 5921 5922 5922 5923 5924 5925 5927 5928 5928 5929 5930 5932 5933 5934 5935 5936 5936 5937 5937 5938 5939 5939 5939 5939 5939 5939 5939 5938 5938 5938 5938 5938 5938 5938 5938 5937 5937 5937 5936 5935 5933 5932 5930 5929 5928 5927 5927 5926 5926 5925 5925 5924 5924 5923 5923 5922 5922 5921 5921 5921
5889 5890 5891 5892 5894 5895 5895 5896 5898 5899 5901 5902 5903 5905 5906 5908 5909 5910 5911 5913 5914 5915 5916 5917 5918 5919 5920 5921 5922 5923 5924 5925 5926 5927 5928 5929 5930 5931 5932 5933 5934 5934 5935 5936 5937 5938 5938 5938 5938 5938 5938 5938 5937 5937 5937 5937 5937 5938 5938 5937 5937 5936 5936 5935 5934 5933 5932 5930 5929 5928 5927 5927 5926 5926 5925 5924 5923 5923 5922 5922 5922 5921 5921 5921 5920
5887 5889 5890 5891 5892 5893 5894 5895 5896 5898 5899 5900 5902 5904 5905 5906 5908 5909 5910 5911 5912 5913 5914 5915 5916 5917 5918 5919 5920 5921 5922 5923 5924 5925 5926 5927 5928 5929 5930 5931 5932 5933 5933 5934 5936 5936 5937 5937 5937 5937 5937 5937 5936 5936 5936 5936 5937 5937 5937 5937 5937 5936 5936 5935 5934 5933 5932 5931 5929 5928 5927 5926 5926 5925 5924 5924 5923 5922 5922 5921 5921 5920 5920 5920 5919
5886 5887 5889 5890 5891 5892 5893 5894 5895 5896 5897 5899 5901 5903 5904 5905 5906 5907 5908 5909 5910 5912 5912 5913 5914 5915 5916 5917 5919 5920 5921 5922 5922 5923 5924 5925 5926 5927 5928 5929 5930 5931 5932 5933 5934 5935 5935 5936 5936 5936 5936 5935 5935 5935 5935 5935 5936 5936 5936 5936 5936 5936 5935 5934 5933 5932 5931 5930 5929 5928 5927 5926 5925 5925 5924 5923 5923 5922 5922 5921 5920 5920 5919 5919 5919
5885 5886 5888 5889 5890 5891 5892 5893 5894 5895 5896 5898 5900 5901 5902 5903 5904 5905 5906 5908 5909 5910 5911 5912 5913 5914 5915 5916 5917 5918 5919 5920 5921 5921 5922 5923 5924 5925 5926 5927 5928 5929 5930 5931 5932 5933 5934 5934 5935 5935 5935 5934 5934 5934 5934 5934 5934 5935 5935 5935 5936 5935 5935 5934 5933 5932 5931 5930 5929 5928 5927 5926 5925 5924 5924 5923 5923 5922 5921 5921 5920 5919 5919 5918 5917
5883 5885 5886 5887 5888 5890 5891 5893 5894 5895 5895 5897 5898 5899 5900 5901 5903 5904 5905 5906 5907 5908 5909 5910 5911 5912 5914 5915 5916 5917 5918 5918 5919 5919 5920 5921 5922 5923 5924 5925 5926 5927 5928 5930 5930 5931 5932 5932 5933 5933 5933 5933 5933 5933 5933 5933 5933 5934 5934 5934 5935 5934 5934 5933 5932 5931 5930 5929 5929 5928 5927 5926 5925 5924 5924 5923 5922 5922 5921 5920 5920 5919 5918 5918 5917
5882 5884 5885 5886 5887 5889 5891 5892 5894 5895 5895 5896 5896 5897 5898 5900 5901 5902 5903 5904 5905 5906 5908 5909 5910 5911 5912 5913 5914 5915 5916 5917 5917 5918 5919 5920 5920 5921 5922 5923 5924 5926 5927 5928 5929 5929 5930 5931 5931 5932 5932 5932 5932 5931 5931 5931 5932 5932 5932 5933 5933 5933 5933 5932 5932 5931 5930 5929 5928 5928 5927 5926 5925 5924 5924 5923 5922 5922 5921 5920 5920 5919 5918 5918 5917
5880 5882 5883 5885 5887 5888 5890 5891 5892 5893 5894 5894 5894 5895 5897 5898 5899 5900 5901 5902 5903 5905 5906 5908 5909 5910 5911 5912 5913 5913 5914 5915 5916 5916 5917 5918 5919 5919 5920 5921 5922 5924 5925 5926 5927 5928 5928 5929 5929 5930 5930 5930 5930 5930 5930 5930 5930 5931 5931 5931 5931 5931 5931 5931 5931 5930 5929 5929 5928 5927 5927 5926 5925 5924 5924 5923 5922 5921 5921 5920 5919 5918 5918 5917 5916
5879 5880 5882 5884 5885 5886 5887 5888 5889 5890 5891 5892 5893 5894 5895 5896 5897 5898 5899 5901 5902 5903 5905 5906 5907 5908 5909 5910 5911 5911 5912 5912 5913 5914 5915 5916 5916 5917 5918 5919 5920 5922 5923 5924 5925 5926 5926 5927 5927 5928 5928 5928 5928 5928 5928 5928 5929 5929 5929 5929 5929 5930 5929 5929 5929 5929 5928 5928 5927 5927 5926 5925 5924 5923 5922 5922 5921 5920 5920 5919 5918 5917 5916 5915 5914
5877 5878 5880 5881 5882 5883 5884 5885 5885 5887 5889 5890 5891 5893 5894 5895 5897 5897 5897 5899 5901 5902 5903 5904 5905 5906 5907 5908 5908 5909 5910 5910 5911 5912 5912 5913 5914 5915 5915 5917 5918 5919 5920 5922 5923 5923 5924 5925 5925 5926 5926 5926 5926 5926 5926 5927 5927 5927 5927 5927 5928 5928 5927 5927 5927 5927 5927 5927 5926 5926 5924 5923 5923 5922 5921 5919 5919 5918 5918 5917 5916 5916 5915 5914 5913
5874 5875 5878 5879 5880 5880 5881 5882 5883 5884 5886 5888 5889 5891 5893 5894 5895 5895 5896 5898 5899 5900 5901 5902 5903 5904 5905 5905 5906 5908 5908 5909 5909 5910 5910 5911 5911 5912 5913 5914 5915 5916 5918 5919 5920 5921 5922 5922 5923 5923 5924 5924 5924 5924 5924 5924 5925 5925 5925 5925 5925 5925 5925 5925 5925 5925 5925 5925 5925 5924 5923 5922 5921 5920 5919 5917 5916 5916 5916 5915 5915 5915 5914 5913 5912
5870 5872 5875 5876 5876 5877 5878 5880 5881 5882 5883 5885 5887 5889 5891 5892 5893 5894 5896 5897 5897 5898 5899 5900 5901 5902 5902 5903 5905 5906 5906 5907 5908 5908 5908 5908 5909 5909 5910 5911 5912 5913 5915 5916 5917 5918 5919 5920 5920 5921 5921 5921 5921 5922 5922 5922 5922 5922 5923 5923 5923 5923 5923 5923 5923 5924 5924 5924 5924 5923 5922 5921 5920 5919 5918 5916 5915 5915 5914 5914 5913 5913 5912 5911 5910
5868 5870 5871 5872 5873 5875 5876 5878 5880 5881 5881 5882 5885 5887 5888 5890 5891 5892 5894 5894 5895 5896 5897 5898 5899 5899 5900 5901 5902 5903 5904 5905 5905 5906 5906 5906 5907 5907 5908 5909 5910 5911 5912 5913 5914 5915 5916 5917 5917 5917 5918 5918 5918 5919 5919 5920 5920 5920 5920 5921 5921 5921 5921 5921 5921 5921 5922 5922 5922 5921 5920 5919 5919 5918 5917 5915 5914 5914 5913 5912 5912 5911 5910 5909 5907
5865 5867 5868 5869 5871 5873 5874 5876 5878 5879 5879 5880 5882 5884 5885 5887 5888 5890 5891 5891 5892 5893 5895 5896 5896 5897 5898 5899 5900 5901 5902 5902 5903 5903 5904 5904 5905 5905 5906 5906 5907 5908 5909 5910 5911 5912 5913 5914 5914 5914 5914 5915 5915 5915 5916 5917 5917 5917 5918 5918 5919 5919 5919 5919 5919 5919 5920 5920 5920 5919 5918 5918 5918 5917 5916 5915 5913 5912 5911 5911 5910 5909 5908 5906 5905
5861 5863 5865 5866 5869 5870 5872 5873 5875 5877 5878 5879 5880 5881 5883 5884 5886 5886 5887 5888 5889 5891 5893 5894 5894 5895 5896 5898 5899 5900 5900 5900 5901 5901 5902 5903 5903 5903 5904 5904 5904 5905 5906 5907 5908 5909 5909 5910 5910 5910 5911 5911 5911 5912 5913 5913 5914 5914 5915 5915 5916 5916 5916 5916 5916 5917 5917 5918 5918 5917 5916 5916 5916 5915 5914 5913 5912 5911 5910 5909 5908 5907 5906 5904 5902
5857 5858 5860 5863 5865 5867 5869 5870 5872 5874 5876 5877 5878 5879 5880 5882 5883 5883 5884 5885 5886 5888 5890 5892 5892 5893 5895 5896 5897 5897 5897 5898 5899 5900 5901 5901 5902 5902 5902 5902 5903 5903 5904 5904 5905 5906 5906 5906 5907 5907 5907 5908 5908 5909 5909 5910 5911 5912 5912 5913 5913 5914 5914 5914 5914 5914 5915 5915 5915 5915 5914 5914 5914 5913 5912 5911 5910 5909 5908 5907 5906 5905 5904 5902 5900
5852 5854 5856 5858 5861 5863 5866 5867 5869 5871 5873 5875 5876 5877 5878 5879 5880 5880 5881 5882 5883 5885 5887 5889 5890 5891 5893 5894 5894 5894 5895 5896 5897 5898 5899 5900 5900 5901 5901 5901 5901 5902 5902 5903 5903 5904 5904 5904 5905 5905 5905 5905 5906 5906 5907 5907 5908 5909 5910 5910 5910 5911 5911 5911 5911 5911 5912 5912 5913 5912 5912 5911 5911 5911 5910 5909 5908 5907 5906 5905 5904 5902 5901 5900 5898
5847 5849 5852 5854 5856 5859 5861 5863 5865 5867 5869 5871 5873 5874 5875 5876 5877 5878 5879 5879 5880 5882 5884 5886 5887 5889 5890 5891 5891 5892 5893 5894 5895 5896 5897 5898 5898 5899 5899 5900 5900 5901 5901 5901 5902 5902 5902 5903 5903 5903 5903 5903 5903 5904 5904 5905 5905 5906 5906 5907 5907 5907 5908 5908 5908 5908 5909 5909 5910 5909 5909 5908 5908 5908 5907 5906 5905 5905 5904 5902 5901 5900 5899 5898 5896
5844 5846 5848 5850 5853 5855 5857 5859 5862 5864 5866 5868 5870 5872 5873 5873 5874 5875 5877 5877 5878 5880 5881 5883 5885 5886 5887 5887 5888 5889 5891 5892 5893 5894 5895 5896 5896 5897 5898 5898 5899 5899 5900 5900 5900 5901 5901 5901 5901 5901 5901 5901 5902 5902 5902 5902 5902 5902 5903 5903 5903 5904 5904 5904 5904 5905 5905 5906 5906 5906 5905 5905 5905 5905 5904 5903 5902 5902 5901 5900 5899 5897 5896 5895 5893
5842 5844 5846 5848 5850 5852 5854 5856 5858 5860 5862 5864 5867 5868 5870 5871 5872 5873 5874 5874 5875 5877 5878 5880 5881 5882 5883 5885 5886 5887 5888 5889 5890 5891 5892 5893 5894 5895 5896 5896 5897 5897 5898 5898 5899 5899 5899 5899 5900 5900 5900 5900 5900 5900 5900 5899 5899 5899 5899 5899 5900 5900 5900 5900 5900 5901 5902 5902 5902 5902 5902 5902 5902 5901 5900 5899 5899 5898 5898 5897 5895 5894 5893 5891 5890
5839 5841 5843 5845 5847 5849 5851 5853 5855 5857 5859 5861 5863 5865 5867 5869 5869 5870 5870 5871 5873 5874 5875 5876 5878 5879 5880 5882 5883 5884 5886 5887 5888 5889 5889 5890 5891 5892 5893 5894 5894 5895 5895 5896 5896 5897 5897 5897 5898 5898 5898 5898 5898 5898 5898 5897 5897 5896 5896 5896 5895 5896 5896 5896 5896 5897 5898 5898 5898 5898 5898 5898 5898 5897 5897 5896 5896 5895 5894 5893 5892 5891 5890 5888 5887
5836 5838 5840 5842 5844 5846 5848 5850 5852 5853 5856 5857 5859 5862 5864 5865 5866 5867 5868 5869 5870 5872 5872 5874 5875 5876 5878 5879 5880 5881 5883 5884 5885 5885 5886 5886 5887 5889 5890 5891 5891 5891 5892 5893 5894 5894 5895 5895 5895 5896 5896 5896 5896 5896 5895 5895 5894 5894 5893 5892 5892 5892 5892 5892 5892 5893 5894 5894 5894 5894 5894 5894 5894 5893 5893 5893 5892 5891 5890 5890 5889 5887 5886 5885 5884
5833 5835 5837 5839 5841 5843 5845 5847 5848 5850 5852 5854 5856 5859 5861 5862 5864 5865 5866 5867 5868 5869 5870 5872 5873 5874 5875 5876 5877 5879 5880 5880 5881 5882 5883 5884 5885 5885 5886 5887 5888 5888 5889 5889 5890 5890 5891 5892 5892 5892 5893 5893 5893 5893 5893 5893 5892 5891 5890 5889 5888 5888 5889 5889 5889 5890 5891 5891 5891 5891 5890 5890 5890 5890 5889 5889 5888 5888 5887 5886 5885 5884 5882 5881 5880
5831 5833 5835 5837 5839 5841 5843 5844 5845 5847 5849 5852 5853 5855 5857 5859 5861 5863 5864 5865 5866 5867 5868 5870 5871 5872 5873 5874 5875 5876 5876 5877 5878 5879 5880 5881 5882 5883 5883 5884 5884 5885 5886 5886 5886 5887 5888 5888 5888 5889 5889 5890 5890 5890 5891 5890 5890 5889 5888 5886 5886 5885 5886 5887 5887 5887 5888 5888 5887 5887 5887 5887 5887 5886 5886 5885 5884 5884 5883 5882 5882 5880 5879 5878 5877
5829 5830 5832 5835 5837 5838 5840 5841 5843 5845 5846 5848 5850 5852 5854 5857 5858 5860 5861 5862 5863 5865 5866 5867 5869 5870 5871 5872 5872 5873 5873 5874 5875 5876 5877 5878 5879 5880 5880 5880 5881 5881 5882 5883 5883 5883 5884 5884 5884 5884 5885 5886 5887 5887 5887 5887 5886 5885 5884 5883 5882 5882 5882 5882 5883 5884 5884 5884 5883 5884 5884 5884 5883 5883 5883 5881 5880 5880 5879 5879 5878 5876 5875 5873 5872
5826 5828 5829 5832 5834 5835 5837 5839 5840 5842 5843 5845 5847 5849 5851 5853 5855 5857 5859 5859 5861 5862 5863 5865 5866 5867 5868 5869 5869 5870 5870 5871 5872 5873 5874 5875 5876 5876 5877 5877 5877 5877 5878 5878 5879 5879 5879 5879 5880 5880 5881 5882 5882 5882 5882 5882 5882 5881 5880 5879 5878 5877 5877 5878 5879 5879 5880 5879 5879 5879 5880 5880 5879 5879 5879 5877 5876 5875 5875 5875 5874 5872 5870 5869 5867
5823 5825 5827 5828 5830 5832 5834 5835 5837 5839 5841 5842 5844 5846 5848 5850 5852 5854 5855 5857 5858 5859 5860 5861 5862 5864 5865 5865 5866 5867 5868 5869 5870 5870 5871 5871 5872 5873 5873 5872 5873 5873 5874 5874 5875 5875 5876 5876 5876 5876 5876 5877 5877 5877 5877 5878 5877 5876 5875 5874 5872 5871 5872 5873 5874 5874 5875 5874 5874 5874 5874 5875 5875 5875 5875 5873 5871 5871 5872 5871 5869 5868 5866 5864 5863
5819 5821 5824 5825 5827 5829 5830 5832 5834 5836 5837 5839 5840 5842 5844 5846 5848 5850 5852 5854 5855 5856 5856 5858 5859 5860 5861 5862 5863 5864 5865 5866 5867 5867 5867 5867 5868 5869 5868 5868 5869 5869 5870 5870 5871 5872 5872 5873 5872 5872 5871 5871 5872 5872 5872 5873 5873 5871 5870 5868 5867 5866 5867 5868 5868 5868 5869 5869 5868 5868 5869 5870 5870 5870 5870 5868 5866 5867 5867 5866 5865 5864 5862 5860 5858
5815 5817 5820 5822 5824 5825 5827 5828 5830 5832 5834 5836 5837 5838 5840 5842 5844 5846 5848 5850 5851 5851 5853 5854 5856 5857 5858 5859 5860 5861 5862 5862 5862 5863 5863 5863 5864 5864 5864 5864 5864 5865 5865 5866 5866 5867 5867 5868 5867 5867 5866 5866 5867 5866 5866 5867 5868 5867 5865 5864 5862 5863 5863 5863 5862 5862 5862 5862 5862 5862 5863 5865 5864 5864 5864 5862 5861 5862 5863 5862 5861 5859 5857 5855 5854
5811 5813 5815 5818 5820 5822 5823 5825 5826 5827 5830 5832 5833 5835 5837 5838 5840 5842 5844 5845 5846 5848 5849 5851 5852 5854 5855 5855 5856 5857 5858 5858 5858 5859 5859 5859 5859 5859 5859 5859 5860 5860 5860 5861 5861 5861 5862 5862 5862 5862 5861 5862 5862 5861 5861 5861 5863 5863 5861 5859 5858 5858 5858 5857 5856 5856 5857 5856 5855 5856 5858 5859 5858 5857 5857 5856 5856 5856 5857 5857 5856 5854 5852 5850 5849
5806 5808 5811 5813 5816 5817 5819 5821 5822 5824 5825 5828 5830 5831 5833 5835 5837 5838 5840 5841 5843 5844 5846 5847 5849 5850 5851 5852 5852 5853 5853 5854 5854 5855 5854 5855 5855 5855 5854 5855 5855 5855 5855 5856 5856 5856 5856 5856 5856 5856 5856 5856 5856 5856 5855 5856 5857 5857 5856 5855 5853 5852 5851 5849 5849 5850 5851 5850 5849 5849 5851 5852 5852 5851 5850 5850 5850 5851 5851 5851 5851 5849 5846 5845 5844
5802 5804 5806 5808 5811 5813 5815 5816 5818 5820 5822 5823 5825 5827 5829 5831 5833 5835 5836 5838 5839 5841 5842 5843 5845 5845 5846 5847 5848 5848 5849 5849 5850 5850 5850 5850 5850 5850 5850 5850 5850 5850 5850 5849 5850 5850 5849 5849 5850 5849 5849 5850 5849 5848 5848 5850 5851 5851 5850 5850 5848 5846 5844 5843 5841 5842 5843 5843 5842 5842 5844 5845 5845 5843 5843 5843 5843 5844 5845 5845 5845 5843 5840 5839 5839
5797 5799 5802 5804 5806 5808 5811 5812 5814 5816 5818 5820 5821 5823 5825 5826 5828 5830 5832 5833 5835 5836 5838 5839 5840 5841 5842 5842 5843 5844 5844 5845 5845 5845 5846 5846 5846 5845 5845 5845 5845 5844 5844 5843 5844 5843 5842 5842 5843 5843 5843 5843 5842 5841 5842 5843 5845 5844 5843 5843 5842 5841 5838 5836 5834 5834 5834 5834 5834 5834 5836 5837 5837 5835 5834 5835 5836 5838 5840 5839 5838 5836 5834 5833 5834
5793 5795 5797 5799 5801 5804 5806 5808 5810 5812 5814 5816 5817 5819 5820 5822 5823 5825 5827 5829 5830 5832 5833 5834 5835 5836 5837 5837 5838 5839 5839 5840 5840 5840 5841 5841 5840 5840 5840 5839 5839 5838 5838 5838 5838 5837 5836 5836 5835 5836 5836 5835 5834 5833 5835 5836 5836 5836 5836 5836 5837 5835 5832 5830 5828 5827 5826 5824 5825 5826 5828 5829 5828 5826 5827 5829 5830 5831 5832 5831 5830 5829 5828 5828 5828
5787 5790 5792 5794 5796 5799 5801 5803 5805 5808 5809 5811 5813 5814 5816 5817 5819 5820 5822 5823 5825 5826 5828 5829 5830 5831 5832 5832 5833 5834 5834 5835 5835 5835 5835 5835 5835 5834 5834 5834 5833 5833 5832 5832 5831 5831 5830 5829 5829 5828 5828 5827 5825 5825 5826 5827 5827 5828 5829 5829 5828 5827 5825 5823 5821 5820 5818 5816 5815 5817 5819 5820 5818 5817 5820 5823 5824 5823 5823 5824 5824 5823 5822 5822 5822
5782 5784 5787 5790 5792 5794 5796 5798 5800 5803 5805 5806 5808 5809 5811 5812 5814 5815 5817 5818 5819 5821 5822 5823 5824 5825 5826 5827 5828 5828 5829 5829 5829 5829 5829 5829 5829 5829 5829 5828 5828 5827 5826 5825 5825 5824 5823 5823 5822 5821 5820 5818 5817 5817 5819 5818 5818 5820 5821 5820 5818 5818 5817 5815 5814 5813 5809 5806 5805 5807 5809 5809 5807 5809 5812 5815 5816 5817 5817 5817 5817 5816 5815 5814 5814
5777 5779 5781 5784 5786 5789 5791 5793 5795 5797 5799 5801 5803 5804 5806 5807 5809 5810 5812 5813 5814 5816 5817 5818 5819 5820 5820 5821 5822 5822 5823 5823 5823 5822 5822 5822 5823 5822 5822 5822 5821 5820 5819 5819 5818 5817 5816 5816 5815 5813 5811 5810 5809 5811 5813 5811 5808 5810 5811 5809 5808 5809 5807 5806 5807 5804 5797 5793 5794 5796 5798 5799 5799 5801 5804 5807 5808 5810 5810 5809 5809 5809 5807 5806 5807
5772 5774 5776 5779 5781 5783 5785 5787 5789 5791 5793 5795 5797 5799 5801 5802 5804 5805 5807 5808 5809 5810 5811 5812 5813 5814 5814 5815 5815 5816 5816 5816 5816 5816 5816 5816 5816 5815 5815 5815 5814 5814 5812 5811 5811 5810 5809 5808 5806 5805 5804 5802 5800 5803 5806 5803 5799 5801 5801 5800 5799 5800 5798 5797 5798 5793 5784 5781 5784 5787 5789 5791 5792 5792 5795 5799 5801 5801 5801 5800 5801 5801 5800 5799 5799
5767 5769 5772 5774 5776 5778 5780 5782 5784 5786 5787 5789 5791 5793 5795 5797 5798 5800 5801 5803 5804 5804 5805 5806 5807 5807 5808 5808 5809 5809 5809 5809 5809 5809 5809 5809 5808 5807 5807 5807 5807 5806 5805 5804 5803 5802 5801 5800 5798 5796 5796 5794 5793 5794 5795 5794 5792 5791 5791 5791 5790 5790 5789 5787 5786 5781 5773 5771 5776 5780 5781 5783 5784 5784 5786 5790 5792 5792 5792 5791 5791 5791 5791 5791 5792